PSLV R/B, 46915

Orbit data source: Space-Track

PSLV R/B, 46915 is space debris in LEO originally from a launch on Sat, 07 Nov 2020 UTC launched from the Sirharikota (SRI). Debris objects in space refer to the collection of defunct objects orbiting the Earth. Examples of debris include non-operational satellites, rocket bodies, and fragments generated from explosions, collisions, or faulty payload assembly.

Loading next visibility...
Identifier
46915, 2020-081L
Orbit
LEO
Country
Flag of ININ / IND
Related business
Manufacturer
VSSC/LPSC
Mission
Spacecraft
Bus & Motor
PS-4DL, Unknown motor
Mass
920 kg wet, 920 kg dry
Launch date (UTC)
2020-11-07 (5 years ago)
Launch vehicle
Unknown
Launch site
Sirharikota (SRI)
Object type
Payload
Rocket body
Debris
Shape & HBR
Cyl + Cyl + 2 Nozzle, 1.6 m
Radar Cross Section
3.727 m², Large (>1 m²)

Expand to show TLE details & history
Last TLE update: 7 hours ago

TLE from 7 hours ago
0 PSLV R/B
1 46915U 20081L   25308.42669008  .00012893  00000-0  40479-3 0  9999
2 46915  36.8468 204.8081 0023007 152.8928 207.3027 15.32126009276524
Epoch: 2025-11-04T10:14Z
TLE epoch observation values (Epoch: 2025-11-04T10:14:26.022Z)
Latitude
-0.00009°
Longitude
7.28567°
Altitude
482.573 km
Speed
7.619 km/s
True Right ascension
13h 39m 13s
True Declination
0° 00' 00"
Sunlit
Object was in daylight at epoch
Visualization orbit readout
Latitude
Unknown
Longitude
Unknown
Altitude
Unknown
Speed
Unknown
Apparent Right ascension
Unknown
Apparent Declination
Unknown
Sunlit
N/A
Visualization observer readout
Local Sidereal Time
12:56:05
Azimuth
Unknown
Elevation
Unknown
Doppler factor
Unknown
Orbital elements
Apogee altitude
488.199 km
Perigee altitude
456.677 km
Semi-major axis
6,850.575 km
Eccentricity
0.0023
Inclination
36.8468°
RAAN
204.8081°
Arg. of periapsis
152.8928°
True anomaly
207.18208°
Mean anomaly
207.3027°
Eccentric anomaly
207.24236°
Mean motion
3.82783 °/min
Orbital period
94.05 mins
BSTAR
0.00040479
Loading maneuver chart data...
Computing Atmospheric mass density...
Loading historical data...
Loading historical data...
Loading historical data...
Loading historical data...
Loading historical data...
Loading historical data...
Loading historical data...

Documentation

Showing up to 5 results
|